Weather in Tersi

Russia / Republic of Tatarstan     56°19′45″N   52°53′17″E
temp.,
°C
wind,
m/s
gust,
m/s
humid.,
%
clouds,
%
prec.,
mm/h
press.,
hPa
HPBL,
m
13 june, sun
sun1300:00+14ese4109251 0.9 1015274
03:00+12se399495 0.9 1014173
06:00+16sse388975 0.0 1014284
09:00+20s577482 0.0 1015675
12:00+24s576071 0.0 10151416
15:00+24s576451 2.9 10151437
18:00+21s498034 3.3 1015281
21:00+18sse399024 3.7 1016192
14 june, mon
mon1400:00+15sse389496 0.0 1016165
03:00+15sse3491100 0.0 101679
06:00+18se258695 0.0 1017172
09:00+22s4566100 0.0 1017545
12:00+25ssw455993 0.0 10171099
15:00+26sw566198 0.1 10161499
18:00+23wsw357998 0.8 1016165
21:00+19sw2287100 0.9 101611
15 june, tue
tue1500:00+18wsw118731 0.0 101611
03:00+18nne1188100 0.0 101611
06:00+21ene1282100 0.0 1016151
09:00+23sse3372100 0.0 1015571
12:00+25se3362100 0.1 1014952
15:00+26e2363100 0.2 1013684
18:00+22ssw4784100 2.6 1013231
21:00+18w4896100 7.2 1013235
16 june, wed
wed1600:00+18wnw2392100 2.8 101472
03:00+17s3389100 2.8 101443
06:00+20s358665 0.3 1014206
09:00+23s367743 0.3 1013495
12:00+27sse555363 0.1 10121028
15:00+28s4760100 0.1 10111069
18:00+25sse3775100 0.0 1010233
21:00+21se348483 0.1 100951
17 june, thu
thu1700:00+19sse3380100 0.0 100830
03:00+18ssw228172 0.0 100715
06:00+21nnw358321 0.3 1007291
09:00+21n7980100 0.3 1009818
12:00+22n796699 0.0 10101384
15:00+22n69603 0.1 10121718
18:00+19n612590 0.0 1015527
21:00+14nnw47660 0.0 101799